Weather History for KRBO - January, 2012

Change the Weather History Date:

Sunday, January 1, 2012

  Actual Average (KCRP) Record (KCRP)
Temperature  
Mean Temperature 66 °F 57 °F  
Max Temperature 72 °F 67 °F 84 °F (2006)
Min Temperature 59 °F 47 °F 23 °F (1928)
Degree Days  
Heating Degree Days 0 9  
Month to date heating degree days 9  
Since 1 July heating degree days 360  
Cooling Degree Days 0 1  
Month to date cooling degree days 1  
Year to date cooling degree days 1  
Growing Degree Days 16 (Base 50)    
Moisture  
Dew Point 47 °F    
Average Humidity 57    
Maximum Humidity 100    
Minimum Humidity 21    
Precipitation  
Precipitation 0.00 in 0.05 in 1.11 in (1935)
Month to date precipitation 0.05  
Year to date precipitation 0.05  
Snow  
Snow 0.00 in - - ()
Since 1 July snowfall  
Snow Depth -    
Sea Level Pressure  
Sea Level Pressure 30.31 in    
Wind  
Wind Speed 11 mph (NNE)    
Max Wind Speed 26 mph    
Max Gust Speed 33 mph    
Visibility 8 miles    
Events Fog , Rain    
T = Trace of Precipitation, MM = Missing Value Source: NWS Daily Summary

Daily Weather History Graph

Daily Weather History Graph

Search for Another Location

Airport or City:

Trip Planner

Search our weather history database for the weather conditions in past years. The results will help you decide how hot, cold, wet, or windy it might be!

Date:

Astronomy

Jan. 01, 2012 Rise Set
Actual Time 7:21 AM CST 5:46 PM CST
Civil Twilight 6:55 AM CST 6:12 PM CST
Nautical Twilight 6:26 AM CST 6:41 PM CST
Astronomical Twilight 5:58 AM CST 7:10 PM CST
Moon 12:18 PM CST (1/1) 12:38 AM CST (1/1)
Length of Visible Light 11h 16m
Length of Day
10h 25m
First Quarter, 55% of the Moon is Illuminated
Jan 1
First Quarter
Jan 9
Full
Jan 16
Last Quarter
Jan 23
New
Jan 30
First Quarter

Hourly Weather History & Observations

Time (CST) Temp. Dew Point Humidity Pressure Visibility Wind Dir Wind Speed Gust Speed Precip Events Conditions
12:15 AM 67.5 °F 67.5 °F 100% 30.10 in 7.0 mi SE 8.1 mph - N/A   Clear
12:35 AM 68.0 °F 68.0 °F 100% 30.11 in 5.0 mi SE 5.8 mph - N/A   Clear
12:55 AM 67.6 °F 67.8 °F 100% 30.12 in 5.0 mi East 3.5 mph - N/A   Clear
1:15 AM 67.1 °F 67.3 °F 100% 30.12 in 4.0 mi SE 4.6 mph - N/A   Clear
1:35 AM 66.2 °F 66.4 °F 100% 30.11 in 3.0 mi SE 6.9 mph - N/A   Scattered Clouds
1:55 AM 67.1 °F 67.3 °F 100% 30.10 in 5.0 mi SSE 6.9 mph - N/A   Mostly Cloudy
2:15 AM 68.2 °F 68.2 °F 100% 30.11 in 7.0 mi SSE 5.8 mph - N/A   Overcast
2:35 AM 68.7 °F 68.7 °F 100% 30.11 in 7.0 mi South 6.9 mph - N/A   Overcast
2:55 AM 69.1 °F 69.3 °F 100% 30.13 in 10.0 mi Calm Calm - N/A   Overcast
3:15 AM 69.4 °F 69.6 °F 100% 30.14 in 7.0 mi SSW 5.8 mph - N/A   Overcast
3:35 AM 69.8 °F 70.0 °F 100% 30.15 in 5.0 mi SSW 4.6 mph - N/A   Overcast
3:55 AM 70.0 °F 70.2 °F 100% 30.16 in 3.0 mi WSW 4.6 mph - N/A   Overcast
4:15 AM 69.8 °F 70.0 °F 100% 30.17 in 0.8 mi Calm Calm - N/A   Overcast
4:35 AM 69.6 °F 69.6 °F 100% 30.17 in 0.5 mi Calm Calm - N/A Fog Fog
4:55 AM 68.9 °F 69.1 °F 100% 30.19 in 1.8 mi NNW 3.5 mph - N/A   Overcast
5:15 AM - - N/A% 30.20 in 1.2 mi North 8.1 mph - N/A   Overcast
5:35 AM 69.3 °F 69.4 °F 100% 30.22 in 2.5 mi NNW 10.4 mph - N/A   Overcast
5:55 AM 69.3 °F 69.6 °F 100% 30.23 in 5.0 mi North 12.7 mph - N/A Rain Rain
6:15 AM 67.5 °F 67.5 °F 100% 30.25 in 10.0 mi North 18.4 mph 27.6 mph N/A   Overcast
6:35 AM 65.3 °F 62.8 °F 92% 30.26 in 10.0 mi NNE 20.7 mph 27.6 mph N/A   Overcast
6:55 AM 64.4 °F 56.8 °F 76% 30.28 in 10.0 mi North 18.4 mph 27.6 mph N/A   Overcast
7:15 AM 62.8 °F 51.8 °F 67% 30.30 in 10.0 mi NNE 17.3 mph 25.3 mph N/A   Overcast
7:35 AM 61.5 °F 45.7 °F 56% 30.32 in 10.0 mi NNE 15.0 mph 24.2 mph N/A   Overcast
7:55 AM 60.6 °F 45.5 °F 57% 30.34 in 10.0 mi North 13.8 mph 25.3 mph N/A   Overcast
8:15 AM 60.3 °F 44.8 °F 57% 30.35 in 10.0 mi North 19.6 mph 24.2 mph N/A   Scattered Clouds
8:35 AM 60.3 °F 39.6 °F 46% 30.37 in 10.0 mi North 21.9 mph 27.6 mph N/A   Clear
8:55 AM 59.9 °F 38.3 °F 45% 30.39 in 10.0 mi North 18.4 mph 28.8 mph N/A   Clear
9:15 AM 59.9 °F 36.7 °F 42% 30.39 in 10.0 mi NNE 19.6 mph 31.1 mph N/A   Scattered Clouds
9:35 AM 60.8 °F 35.8 °F 39% 30.40 in 10.0 mi North 26.5 mph 33.4 mph N/A   Mostly Cloudy
9:55 AM 61.3 °F 35.2 °F 38% 30.40 in 10.0 mi NNE 20.7 mph 28.8 mph N/A   Scattered Clouds
10:15 AM 61.3 °F 34.9 °F 37% 30.41 in 10.0 mi NNE 24.2 mph 29.9 mph N/A   Scattered Clouds
10:35 AM 62.1 °F 34.5 °F 36% 30.42 in 10.0 mi NNE 16.1 mph 27.6 mph N/A   Overcast
10:55 AM 63.5 °F 34.5 °F 34% 30.42 in 10.0 mi NNE 20.7 mph 27.6 mph N/A   Overcast
11:15 AM 64.8 °F 34.0 °F 32% 30.40 in 10.0 mi NNE 19.6 mph 27.6 mph N/A   Overcast
11:35 AM 66.0 °F 33.8 °F 30% 30.40 in 10.0 mi North 17.3 mph 25.3 mph N/A   Mostly Cloudy
11:55 AM 67.6 °F 33.8 °F 29% 30.40 in 10.0 mi North 19.6 mph 27.6 mph N/A   Scattered Clouds
12:15 PM 68.0 °F 33.1 °F 27% 30.40 in 10.0 mi NNE 15.0 mph 24.2 mph N/A   Mostly Cloudy
12:35 PM 67.8 °F 32.9 °F 27% 30.39 in 10.0 mi North 15.0 mph 23.0 mph N/A   Overcast
12:55 PM 68.4 °F 32.5 °F 27% 30.38 in 10.0 mi North 18.4 mph 24.2 mph N/A   Overcast
1:15 PM 69.1 °F 32.4 °F 26% 30.37 in 10.0 mi North 18.4 mph 26.5 mph N/A   Scattered Clouds
1:35 PM 70.7 °F 32.0 °F 24% 30.36 in 10.0 mi North 18.4 mph 24.2 mph N/A   Clear
1:55 PM 71.8 °F 30.9 °F 22% 30.37 in 10.0 mi North 18.4 mph 26.5 mph N/A   Clear
2:15 PM 72.3 °F 30.4 °F 21% 30.38 in 10.0 mi North 19.6 mph - N/A   Clear
2:35 PM 72.0 °F 30.6 °F 22% 30.38 in 10.0 mi North 18.4 mph 26.5 mph N/A   Clear
2:55 PM 71.8 °F 30.6 °F 22% 30.38 in 10.0 mi North 17.3 mph 27.6 mph N/A   Clear
3:15 PM 71.6 °F 30.2 °F 22% 30.39 in 10.0 mi North 19.6 mph 29.9 mph N/A   Clear
3:35 PM 71.2 °F 29.8 °F 22% 30.40 in 10.0 mi North 18.4 mph 24.2 mph N/A   Clear
3:55 PM 71.1 °F 30.0 °F 22% 30.40 in 10.0 mi North 20.7 mph 25.3 mph N/A   Clear
4:15 PM 70.5 °F 30.2 °F 22% 30.41 in 10.0 mi North 18.4 mph 24.2 mph N/A   Clear
4:35 PM 69.8 °F 29.5 °F 22% 30.42 in 10.0 mi North 19.6 mph 25.3 mph N/A   Clear
4:55 PM 68.7 °F 28.6 °F 22% 30.44 in 10.0 mi NNE 16.1 mph 24.2 mph N/A   Clear
5:15 PM 67.8 °F 30.4 °F 25% 30.44 in 10.0 mi North 15.0 mph - N/A   Clear
5:35 PM 66.4 °F 31.5 °F 27% 30.44 in 10.0 mi North 13.8 mph - N/A   Clear
5:55 PM 64.9 °F 31.1 °F 28% 30.45 in 10.0 mi North 13.8 mph - N/A   Clear
6:15 PM 63.3 °F 31.1 °F 30% 30.45 in 10.0 mi North 12.7 mph - N/A   Clear
6:35 PM 61.9 °F 30.9 °F 31% 30.47 in 10.0 mi North 12.7 mph - N/A   Clear
6:55 PM 61.0 °F 30.9 °F 32% 30.48 in 10.0 mi North 11.5 mph - N/A   Clear
7:15 PM 60.1 °F 30.7 °F 33% 30.48 in 10.0 mi North 11.5 mph - N/A   Clear
7:35 PM 59.7 °F 30.4 °F 33% 30.49 in 10.0 mi North 13.8 mph - N/A   Clear
7:55 PM 58.8 °F 30.4 °F 34% 30.50 in 10.0 mi North 11.5 mph - N/A   Clear
8:15 PM 57.6 °F 30.4 °F 36% 30.51 in 10.0 mi North 12.7 mph - N/A   Clear
8:55 PM 55.8 °F 30.7 °F 39% 30.53 in 10.0 mi North 8.1 mph - N/A   Clear
9:15 PM 54.7 °F 30.7 °F 40% 30.53 in 10.0 mi North 9.2 mph - N/A   Clear
9:35 PM 53.6 °F 30.7 °F 42% 30.54 in 10.0 mi North 8.1 mph - N/A   Clear
9:55 PM 52.3 °F 30.9 °F 44% 30.54 in 10.0 mi North 6.9 mph - N/A   Clear
10:15 PM 51.1 °F 30.9 °F 46% 30.55 in 10.0 mi North 5.8 mph - N/A   Clear
10:35 PM 49.5 °F 30.7 °F 49% 30.55 in 10.0 mi North 8.1 mph - N/A   Clear
10:55 PM 48.2 °F 30.6 °F 51% 30.55 in 10.0 mi North 6.9 mph - N/A   Clear